Weather History for Skagway, AK

Change the Weather History Date:

Wednesday, March 21, 2012

  Actual Average Record
Temperature  
Mean Temperature 30 °F -  
Max Temperature 36 °F 38 °F 55 °F (1998)
Min Temperature 25 °F 26 °F 7 °F (2001)
Degree Days  
Heating Degree Days 34    
Moisture  
Dew Point 8 °F    
Average Humidity 41    
Maximum Humidity 55    
Minimum Humidity 30    
Precipitation  
Precipitation 0.00 in - - ()
Sea Level Pressure  
Sea Level Pressure 29.68 in    
Wind  
Wind Speed 13 mph (NE)    
Max Wind Speed 21 mph    
Max Gust Speed 24 mph    
Visibility 10 miles    
Events      
Averages and records for this station are not official NWS values.
T = Trace of Precipitation, MM = Missing Value Source: NWS Daily Summary

Daily Weather History Graph

Daily Weather History Graph

Search for Another Location

Airport:

Trip Planner

Search our weather history database for the weather conditions in past years. The results will help you decide how hot, cold, wet, or windy it might be!

Date:

Astronomy

Mar. 21, 2012 Rise Set
Actual Time 6:57 AM AKDT 7:19 PM AKDT
Civil Twilight 6:16 AM AKDT 8:00 PM AKDT
Nautical Twilight 5:27 AM AKDT 8:50 PM AKDT
Astronomical Twilight 4:34 AM AKDT 9:44 PM AKDT
Moon 6:14 AM AKDT (3/21) 6:59 PM AKDT (3/21)
Length of Visible Light 13h 43m
Length of Day
12h 21m
Waning Crescent, 1% of the Moon is Illuminated
Mar 21
Waning Crescent
Mar 22
New
Mar 30
First Quarter
Apr 6
Full
Apr 13
Last Quarter

Hourly Weather History & Observations

Time (AKDT) Temp. Windchill Dew Point Humidity Pressure Visibility Wind Dir Wind Speed Gust Speed Precip Events Conditions
12:53 AM 30.0 °F 20.5 °F 10.9 °F 45% 29.47 in 10.0 mi NNE 11.5 mph - N/A   Overcast
1:53 AM 30.0 °F 18.3 °F 10.0 °F 43% 29.49 in 10.0 mi NNE 17.3 mph - N/A   Overcast
2:53 AM 28.0 °F 15.7 °F 10.0 °F 47% 29.52 in 10.0 mi NNE 17.3 mph - N/A   Mostly Cloudy
3:53 AM 27.0 °F 14.3 °F 9.0 °F 47% 29.54 in 10.0 mi NE 17.3 mph 23.0 mph N/A   Clear
4:53 AM 27.0 °F 15.2 °F 9.0 °F 47% 29.56 in 10.0 mi NE 15.0 mph - N/A   Clear
5:53 AM 26.1 °F 13.1 °F 9.0 °F 49% 29.58 in 10.0 mi NE 17.3 mph - N/A   Clear
6:53 AM 26.1 °F 15.6 °F 9.0 °F 49% 29.60 in 10.0 mi NNE 11.5 mph 23.0 mph N/A   Partly Cloudy
7:53 AM 26.1 °F 14.5 °F 9.0 °F 49% 29.62 in 10.0 mi NNE 13.8 mph - N/A   Clear
8:53 AM 26.1 °F 13.1 °F 8.1 °F 47% 29.64 in 10.0 mi NE 17.3 mph 24.2 mph N/A   Clear
9:53 AM 28.9 °F 16.5 °F 7.0 °F 40% 29.65 in 10.0 mi NE 18.4 mph - N/A   Clear
10:53 AM 30.0 °F 17.2 °F 6.1 °F 36% 29.67 in 10.0 mi NE 20.7 mph - N/A   Clear
11:53 AM 32.0 °F 20.8 °F 7.0 °F 35% 29.68 in 10.0 mi NE 17.3 mph - N/A   Clear
12:53 PM 33.1 °F 23.4 °F 6.1 °F 32% 29.70 in 10.0 mi NE 13.8 mph 23.0 mph N/A   Clear
1:53 PM 33.1 °F 25.5 °F 6.1 °F 32% 29.71 in 10.0 mi NNE 9.2 mph 19.6 mph N/A   Clear
2:53 PM 35.1 °F 27.4 °F 6.1 °F 30% 29.73 in 10.0 mi NE 10.4 mph - N/A   Clear
3:53 PM 35.1 °F 26.4 °F 6.1 °F 30% 29.73 in 10.0 mi NE 12.7 mph - N/A   Mostly Cloudy
4:53 PM 35.1 °F 28.6 °F 7.0 °F 31% 29.75 in 10.0 mi NE 8.1 mph - N/A   Mostly Cloudy
5:53 PM 33.1 °F 27.7 °F 7.0 °F 34% 29.77 in 10.0 mi NNE 5.8 mph - N/A   Scattered Clouds
6:53 PM 32.0 °F - 7.0 °F 35% 29.78 in 10.0 mi Calm Calm - N/A   Overcast
7:53 PM 30.0 °F - 9.0 °F 41% 29.79 in 10.0 mi Calm Calm - N/A   Scattered Clouds
8:53 PM 28.9 °F 22.8 °F 8.1 °F 41% 29.82 in 10.0 mi NNE 5.8 mph - N/A   Clear
9:53 PM 28.0 °F 22.8 °F 7.0 °F 41% 29.83 in 10.0 mi NNE 4.6 mph - N/A   Clear
10:53 PM 26.1 °F 21.9 °F 8.1 °F 47% 29.84 in 10.0 mi East 3.5 mph - N/A   Clear
11:53 PM 25.0 °F - 10.9 °F 55% 29.86 in 10.0 mi Calm Calm - N/A   Clear